• In Czech Republic
  • List of Countries
  • For 7 days
  • Water Temperature
  • Satellite Maps
  • Weather Map
  • Weather Widgets
  • user-avatar
    Login

    Hourly Weather Mingachevir

    Today, 26 September, Tuesday

    Time Temperature Precipitation Wind Pressure Humidity
    00:00 +23°C° 0 mm 4 mps 756 mmHg 57%
    01:00 +22°C° 0 mm 4 mps 756 mmHg 59%
    02:00 +21°C° 0 mm 3 mps 756 mmHg 61%
    03:00 +20°C° 0 mm 2 mps 756 mmHg 62%
    04:00 +20°C° 0 mm 2 mps 756 mmHg 64%
    05:00 +20°C° 0 mm 2 mps 756 mmHg 66%
    06:00 +20°C° 0 mm 1 mps 756 mmHg 67%
    07:00 +21°C° 0 mm 2 mps 755 mmHg 62%
    08:00 +22°C° 0 mm 3 mps 755 mmHg 57%
    09:00 +25°C° 0 mm 3 mps 755 mmHg 52%
    10:00 +26°C° 0 mm 3 mps 755 mmHg 50%
    11:00 +26°C° 0 mm 4 mps 755 mmHg 48%
    12:00 +27°C° 0 mm 4 mps 754 mmHg 45%
    13:00 +27°C° 0 mm 4 mps 754 mmHg 46%
    14:00 +27°C° 0 mm 4 mps 754 mmHg 46%
    15:00 +27°C° 0 mm 5 mps 754 mmHg 46%
    16:00 +26°C° 0 mm 5 mps 754 mmHg 50%
    17:00 +25°C° 0 mm 5 mps 754 mmHg 53%
    18:00 +23°C° 0 mm 5 mps 755 mmHg 57%
    19:00 +23°C° 0 mm 6 mps 755 mmHg 59%
    20:00 +22°C° 0 mm 6 mps 755 mmHg 61%
    21:00 +21°C° 0 mm 6 mps 755 mmHg 63%
    22:00 +21°C° 0 mm 5 mps 755 mmHg 64%
    23:00 +20°C° 0 mm 5 mps 755 mmHg 65%

    Tomorrow, 27 September, Wednesday

    Time Temperature Precipitation Wind Pressure Humidity
    00:00 +20°C° 0 mm 4 mps 755 mmHg 66%
    01:00 +20°C° 0.1 mm 4 mps 755 mmHg 67%
    02:00 +19°C° 0.1 mm 3 mps 755 mmHg 68%
    03:00 +19°C° 0.1 mm 3 mps 755 mmHg 70%
    04:00 +19°C° 0.3 mm 3 mps 755 mmHg 71%
    05:00 +19°C° 0.3 mm 2 mps 755 mmHg 73%
    06:00 +18°C° 0.3 mm 2 mps 754 mmHg 75%
    07:00 +19°C° 0 mm 2 mps 754 mmHg 73%
    08:00 +19°C° 0 mm 2 mps 755 mmHg 72%
    09:00 +19°C° 0 mm 2 mps 755 mmHg 70%
    10:00 +20°C° 0.1 mm 3 mps 754 mmHg 68%
    11:00 +21°C° 0.1 mm 3 mps 754 mmHg 66%
    12:00 +21°C° 0.1 mm 3 mps 754 mmHg 64%
    13:00 +21°C° 0 mm 3 mps 754 mmHg 64%
    14:00 +21°C° 0 mm 3 mps 754 mmHg 65%
    15:00 +21°C° 0 mm 3 mps 754 mmHg 65%
    16:00 +21°C° 0 mm 3 mps 754 mmHg 68%
    17:00 +20°C° 0 mm 3 mps 754 mmHg 70%
    18:00 +20°C° 0 mm 3 mps 754 mmHg 72%
    19:00 +19°C° 0.5 mm 3 mps 754 mmHg 74%
    20:00 +19°C° 0.5 mm 3 mps 755 mmHg 76%
    21:00 +18°C° 0.5 mm 3 mps 755 mmHg 77%
    22:00 +18°C° 0.4 mm 3 mps 755 mmHg 78%
    23:00 +18°C° 0.4 mm 4 mps 755 mmHg 80%

    Day after tomorrow, 28 September, Thursday

    Time Temperature Precipitation Wind Pressure Humidity
    00:00 +17°C° 0.4 mm 4 mps 755 mmHg 81%
    01:00 +17°C° 0.3 mm 4 mps 755 mmHg 81%
    02:00 +17°C° 0.3 mm 4 mps 755 mmHg 82%
    03:00 +17°C° 0.3 mm 4 mps 755 mmHg 83%
    04:00 +17°C° 0.5 mm 4 mps 755 mmHg 82%
    05:00 +17°C° 0.5 mm 4 mps 755 mmHg 81%
    06:00 +17°C° 0.5 mm 4 mps 756 mmHg 80%
    07:00 +16°C° 0.5 mm 5 mps 756 mmHg 80%
    08:00 +16°C° 0.5 mm 5 mps 757 mmHg 80%
    09:00 +16°C° 0.5 mm 5 mps 757 mmHg 80%
    10:00 +16°C° 0.3 mm 5 mps 757 mmHg 79%
    11:00 +16°C° 0.3 mm 5 mps 757 mmHg 78%
    12:00 +16°C° 0.3 mm 5 mps 757 mmHg 77%
    13:00 +16°C° 0.2 mm 5 mps 757 mmHg 76%
    14:00 +17°C° 0.2 mm 4 mps 757 mmHg 74%
    15:00 +17°C° 0.2 mm 4 mps 757 mmHg 73%
    16:00 +15°C° 0.1 mm 4 mps 758 mmHg 74%
    17:00 +15°C° 0.1 mm 4 mps 758 mmHg 74%
    18:00 +16°C° 0.1 mm 3 mps 758 mmHg 75%
    19:00 +16°C° 0.1 mm 3 mps 759 mmHg 75%
    20:00 +16°C° 0.1 mm 3 mps 759 mmHg 76%
    21:00 +16°C° 0.1 mm 3 mps 759 mmHg 76%
    22:00 +16°C° 0.1 mm 3 mps 759 mmHg 78%
    23:00 +14°C° 0.1 mm 3 mps 759 mmHg 79%

    29 September, Friday

    Time Temperature Precipitation Wind Pressure Humidity
    00:00 +15°C° 0.1 mm 2 mps 759 mmHg 81%
    01:00 +15°C° 0.3 mm 2 mps 759 mmHg 81%
    02:00 +15°C° 0.3 mm 2 mps 759 mmHg 82%
    03:00 +15°C° 0.3 mm 2 mps 759 mmHg 83%
    04:00 +15°C° 0.1 mm 2 mps 759 mmHg 82%
    05:00 +15°C° 0.1 mm 2 mps 759 mmHg 82%
    06:00 +15°C° 0.1 mm 2 mps 759 mmHg 82%
    07:00 +15°C° 0 mm 2 mps 758 mmHg 79%
    08:00 +16°C° 0 mm 2 mps 758 mmHg 76%
    09:00 +17°C° 0 mm 2 mps 758 mmHg 73%
    10:00 +17°C° 0 mm 3 mps 758 mmHg 70%
    11:00 +18°C° 0 mm 3 mps 757 mmHg 67%
    12:00 +19°C° 0 mm 3 mps 757 mmHg 64%
    13:00 +19°C° 0 mm 3 mps 757 mmHg 63%
    14:00 +19°C° 0 mm 3 mps 756 mmHg 62%
    15:00 +20°C° 0 mm 3 mps 756 mmHg 61%
    16:00 +19°C° 0 mm 2 mps 756 mmHg 64%
    17:00 +18°C° 0 mm 2 mps 756 mmHg 67%
    18:00 +18°C° 0 mm 2 mps 756 mmHg 71%
    19:00 +17°C° 0 mm 2 mps 756 mmHg 71%
    20:00 +17°C° 0 mm 2 mps 756 mmHg 72%
    21:00 +18°C° 0 mm 1 mps 756 mmHg 72%
    22:00 +18°C° 0 mm 1 mps 756 mmHg 72%
    23:00 +18°C° 0 mm 1 mps 755 mmHg 72%

    30 September, Saturday

    Time Temperature Precipitation Wind Pressure Humidity
    00:00 +18°C° 0 mm 1 mps 755 mmHg 73%
    01:00 +18°C° 0 mm 1 mps 755 mmHg 73%
    02:00 +18°C° 0 mm 1 mps 754 mmHg 72%
    03:00 +18°C° 0 mm 1 mps 754 mmHg 72%
    04:00 +18°C° 0 mm 1 mps 754 mmHg 73%
    05:00 +18°C° 0 mm 1 mps 754 mmHg 74%
    06:00 +16°C° 0 mm 1 mps 754 mmHg 74%
    07:00 +18°C° 0 mm 1 mps 754 mmHg 71%
    08:00 +18°C° 0 mm 2 mps 753 mmHg 67%
    09:00 +19°C° 0 mm 2 mps 753 mmHg 64%
    10:00 +20°C° 0 mm 2 mps 753 mmHg 61%
    11:00 +21°C° 0 mm 2 mps 752 mmHg 59%
    12:00 +22°C° 0 mm 3 mps 752 mmHg 57%
    13:00 +23°C° 0 mm 2 mps 751 mmHg 57%
    14:00 +23°C° 0 mm 2 mps 751 mmHg 57%
    15:00 +23°C° 0 mm 2 mps 750 mmHg 57%
    16:00 +23°C° 0.3 mm 2 mps 751 mmHg 62%
    17:00 +21°C° 0.3 mm 2 mps 751 mmHg 66%
    18:00 +20°C° 0.3 mm 2 mps 751 mmHg 71%
    19:00 +20°C° 0.3 mm 2 mps 751 mmHg 73%
    20:00 +19°C° 0.3 mm 2 mps 751 mmHg 75%
    21:00 +19°C° 0.3 mm 2 mps 751 mmHg 78%
    22:00 +19°C° 0.1 mm 3 mps 751 mmHg 78%
    23:00 +19°C° 0.1 mm 3 mps 751 mmHg 78%

    1 October, Sunday

    Time Temperature Precipitation Wind Pressure Humidity
    00:00 +19°C° 0.1 mm 3 mps 751 mmHg 78%
    01:00 +19°C° 0 mm 3 mps 751 mmHg 76%
    02:00 +19°C° 0 mm 3 mps 751 mmHg 74%
    03:00 +19°C° 0 mm 4 mps 751 mmHg 72%
    04:00 +18°C° 0 mm 4 mps 751 mmHg 71%
    05:00 +18°C° 0 mm 4 mps 752 mmHg 71%
    06:00 +17°C° 0 mm 4 mps 752 mmHg 70%
    07:00 +19°C° 0 mm 4 mps 752 mmHg 63%
    08:00 +21°C° 0 mm 4 mps 752 mmHg 56%
    09:00 +23°C° 0 mm 5 mps 752 mmHg 49%
    10:00 +25°C° 0 mm 4 mps 752 mmHg 46%
    11:00 +26°C° 0 mm 4 mps 752 mmHg 42%
    12:00 +27°C° 0 mm 4 mps 752 mmHg 39%
    13:00 +28°C° 0 mm 4 mps 752 mmHg 38%
    14:00 +28°C° 0 mm 3 mps 751 mmHg 37%
    15:00 +28°C° 0 mm 3 mps 751 mmHg 35%
    16:00 +27°C° 0 mm 2 mps 751 mmHg 39%
    17:00 +26°C° 0 mm 1 mps 752 mmHg 42%
    18:00 +23°C° 0 mm 0 mps 752 mmHg 45%
    19:00 +24°C° 0 mm 1 mps 752 mmHg 47%
    20:00 +24°C° 0 mm 1 mps 753 mmHg 50%
    21:00 +23°C° 0 mm 2 mps 753 mmHg 52%
    22:00 +21°C° 0 mm 2 mps 753 mmHg 57%
    23:00 +21°C° 0 mm 2 mps 753 mmHg 61%
    Show more